Time,TemperatureF,DewpointF,PressureIn,WindDirection,WindDirectionDegrees,WindSpeedMPH,WindSpeedGustMPH,Humidity,HourlyPrecipIn,Conditions,Clouds,dailyrainin,SoftwareType,DateUTC
2013-05-27 00:08:00,64.2,48.0,30.26,NNE,22,0.0,-999.0,56,-99.99,,,0.00,weatherlink.com 1.10,2013-05-27 04:08:00,
2013-05-27 00:23:00,63.0,48.0,30.26,North,349,1.0,-999.0,58,-99.99,,,0.00,weatherlink.com 1.10,2013-05-27 04:23:00,
2013-05-27 00:38:00,62.6,48.0,30.26,ENE,57,0.0,-999.0,59,-99.99,,,0.00,weatherlink.com 1.10,2013-05-27 04:38:00,
2013-05-27 00:53:00,62.6,48.0,30.26,NNE,22,2.0,-999.0,59,-99.99,,,0.00,weatherlink.com 1.10,2013-05-27 04:53:00,
2013-05-27 01:08:00,62.7,48.0,30.26,North,349,1.0,-999.0,59,-99.99,,,0.00,weatherlink.com 1.10,2013-05-27 05:08:00,
2013-05-27 01:23:00,63.0,48.0,30.25,NE,37,2.0,-999.0,59,-99.99,,,0.00,weatherlink.com 1.10,2013-05-27 05:23:00,
2013-05-27 01:38:00,63.1,49.0,30.25,NE,36,0.0,-999.0,60,-99.99,,,0.00,weatherlink.com 1.10,2013-05-27 05:38:00,
2013-05-27 01:53:00,62.8,49.0,30.25,NE,35,0.0,-999.0,61,-99.99,,,0.00,weatherlink.com 1.10,2013-05-27 05:53:00,
2013-05-27 02:08:00,62.7,49.0,30.25,ENE,68,1.0,-999.0,62,-99.99,,,0.00,weatherlink.com 1.10,2013-05-27 06:08:00,
2013-05-27 02:23:00,62.4,49.0,30.25,ENE,68,1.0,-999.0,63,-99.99,,,0.00,weatherlink.com 1.10,2013-05-27 06:23:00,
2013-05-27 02:38:00,61.9,49.0,30.25,NE,37,1.0,-999.0,64,-99.99,,,0.00,weatherlink.com 1.10,2013-05-27 06:38:00,
2013-05-27 02:53:00,61.6,50.0,30.24,NE,43,2.0,-999.0,65,-99.99,,,0.00,weatherlink.com 1.10,2013-05-27 06:53:00,
2013-05-27 03:08:00,61.7,50.0,30.24,NE,51,1.0,-999.0,66,-99.99,,,0.00,weatherlink.com 1.10,2013-05-27 07:08:00,
2013-05-27 03:23:00,61.8,50.0,30.24,NE,51,1.0,-999.0,66,-99.99,,,0.00,weatherlink.com 1.10,2013-05-27 07:23:00,
2013-05-27 03:38:00,61.9,51.0,30.24,NNE,30,1.0,-999.0,67,-99.99,,,0.00,weatherlink.com 1.10,2013-05-27 07:38:00,
2013-05-27 03:53:00,61.7,51.0,30.24,NNE,23,1.0,-999.0,67,-99.99,,,0.00,weatherlink.com 1.10,2013-05-27 07:53:00,
2013-05-27 04:08:00,61.7,50.0,30.24,NE,39,2.0,-999.0,66,-99.99,,,0.00,weatherlink.com 1.10,2013-05-27 08:08:00,
2013-05-27 04:23:00,61.9,50.0,30.24,ENE,65,2.0,-999.0,66,-99.99,,,0.00,weatherlink.com 1.10,2013-05-27 08:23:00,
2013-05-27 04:38:00,61.9,50.0,30.25,ENE,62,2.0,-999.0,66,-99.99,,,0.00,weatherlink.com 1.10,2013-05-27 08:38:00,
2013-05-27 04:53:00,61.9,50.0,30.25,ENE,62,0.0,-999.0,65,-99.99,,,0.00,weatherlink.com 1.10,2013-05-27 08:53:00,
2013-05-27 05:08:00,61.5,50.0,30.25,SE,130,0.0,-999.0,66,-99.99,,,0.00,weatherlink.com 1.10,2013-05-27 09:08:00,
2013-05-27 05:23:00,61.3,50.0,30.26,SE,130,0.0,-999.0,67,-99.99,,,0.00,weatherlink.com 1.10,2013-05-27 09:23:00,
2013-05-27 05:38:00,61.1,50.0,30.26,ESE,102,1.0,-999.0,68,-99.99,,,0.00,weatherlink.com 1.10,2013-05-27 09:38:00,
2013-05-27 05:53:00,60.7,50.0,30.26,ESE,102,1.0,-999.0,69,-99.99,,,0.00,weatherlink.com 1.10,2013-05-27 09:53:00,
2013-05-27 06:08:00,60.5,50.0,30.26,East,91,1.0,-999.0,69,-99.99,,,0.00,weatherlink.com 1.10,2013-05-27 10:08:00,
2013-05-27 06:23:00,60.2,50.0,30.27,ENE,72,1.0,-999.0,69,-99.99,,,0.00,weatherlink.com 1.10,2013-05-27 10:23:00,
2013-05-27 06:38:00,59.4,50.0,30.28,ESE,118,1.0,-999.0,71,-99.99,,,0.00,weatherlink.com 1.10,2013-05-27 10:38:00,
2013-05-27 06:53:00,59.1,50.0,30.29,ESE,103,1.0,-999.0,72,-99.99,,,0.00,weatherlink.com 1.10,2013-05-27 10:53:00,
2013-05-27 07:08:00,59.2,51.0,30.30,ESE,121,1.0,-999.0,73,-99.99,,,0.00,weatherlink.com 1.10,2013-05-27 11:08:00,
2013-05-27 07:23:00,59.0,51.0,30.30,SE,141,0.0,-999.0,74,-99.99,,,0.00,weatherlink.com 1.10,2013-05-27 11:23:00,
2013-05-27 07:38:00,58.9,50.0,30.30,North,360,1.0,-999.0,72,-99.99,,,0.00,weatherlink.com 1.10,2013-05-27 11:38:00,
2013-05-27 07:53:00,59.1,50.0,30.30,NE,34,0.0,-999.0,71,-99.99,,,0.00,weatherlink.com 1.10,2013-05-27 11:53:00,
2013-05-27 08:08:00,59.8,50.0,30.30,NE,49,0.0,-999.0,69,-99.99,,,0.00,weatherlink.com 1.10,2013-05-27 12:08:00,
2013-05-27 08:23:00,60.5,49.0,30.30,East,86,0.0,-999.0,67,-99.99,,,0.00,weatherlink.com 1.10,2013-05-27 12:23:00,
2013-05-27 08:38:00,62.9,50.0,30.30,WNW,301,0.0,-999.0,63,-99.99,,,0.00,weatherlink.com 1.10,2013-05-27 12:38:00,
2013-05-27 08:53:00,63.9,51.0,30.31,SSE,148,3.0,-999.0,64,-99.99,,,0.00,weatherlink.com 1.10,2013-05-27 12:53:00,
2013-05-27 09:08:00,63.9,52.0,30.31,SSE,149,1.0,-999.0,66,-99.99,,,0.00,weatherlink.com 1.10,2013-05-27 13:08:00,
2013-05-27 09:23:00,63.9,52.0,30.31,South,178,2.0,-999.0,65,-99.99,,,0.00,weatherlink.com 1.10,2013-05-27 13:23:00,
2013-05-27 09:38:00,63.8,52.0,30.31,SSE,151,1.0,-999.0,66,-99.99,,,0.00,weatherlink.com 1.10,2013-05-27 13:38:00,
2013-05-27 09:53:00,64.4,54.0,30.30,NE,53,0.0,-999.0,68,-99.99,,,0.00,weatherlink.com 1.10,2013-05-27 13:53:00,
2013-05-27 10:08:00,65.7,54.0,30.30,NW,315,1.0,-999.0,67,-99.99,,,0.00,weatherlink.com 1.10,2013-05-27 14:08:00,
2013-05-27 10:23:00,66.7,54.0,30.30,West,264,0.0,-999.0,65,-99.99,,,0.00,weatherlink.com 1.10,2013-05-27 14:23:00,
2013-05-27 10:38:00,68.2,56.0,30.29,South,173,3.0,-999.0,65,-99.99,,,0.00,weatherlink.com 1.10,2013-05-27 14:38:00,
2013-05-27 10:53:00,68.8,55.0,30.29,SSE,160,2.0,-999.0,62,-99.99,,,0.00,weatherlink.com 1.10,2013-05-27 14:53:00,
2013-05-27 11:08:00,69.4,55.0,30.29,SE,138,1.0,-999.0,60,-99.99,,,0.00,weatherlink.com 1.10,2013-05-27 15:08:00,
2013-05-27 11:23:00,69.7,53.0,30.29,WNW,284,1.0,-999.0,55,-99.99,,,0.00,weatherlink.com 1.10,2013-05-27 15:23:00,
2013-05-27 11:38:00,70.4,54.0,30.29,WSW,240,1.0,-999.0,57,-99.99,,,0.00,weatherlink.com 1.10,2013-05-27 15:38:00,
2013-05-27 11:53:00,70.9,54.0,30.29,West,274,2.0,-999.0,56,-99.99,,,0.00,weatherlink.com 1.10,2013-05-27 15:53:00,
2013-05-27 12:08:00,72.9,56.0,30.29,North,8,3.0,-999.0,56,-99.99,,,0.00,weatherlink.com 1.10,2013-05-27 16:08:00,
2013-05-27 12:23:00,73.4,56.0,30.28,WSW,243,4.0,-999.0,54,-99.99,,,0.00,weatherlink.com 1.10,2013-05-27 16:23:00,
2013-05-27 12:38:00,73.8,56.0,30.28,South,190,4.0,-999.0,54,-99.99,,,0.00,weatherlink.com 1.10,2013-05-27 16:38:00,
2013-05-27 12:53:00,73.5,55.0,30.27,SSE,160,6.0,-999.0,52,-99.99,,,0.00,weatherlink.com 1.10,2013-05-27 16:53:00,
2013-05-27 13:08:00,72.7,53.0,30.27,South,169,3.0,-999.0,51,-99.99,,,0.00,weatherlink.com 1.10,2013-05-27 17:08:00,
2013-05-27 13:23:00,73.6,55.0,30.26,South,169,2.0,-999.0,53,-99.99,,,0.00,weatherlink.com 1.10,2013-05-27 17:23:00,
2013-05-27 13:39:00,73.7,55.0,30.26,SSE,165,1.0,-999.0,52,-99.99,,,0.00,weatherlink.com 1.10,2013-05-27 17:39:00,
2013-05-27 13:54:00,74.6,55.0,30.26,SW,225,2.0,-999.0,51,-99.99,,,0.00,weatherlink.com 1.10,2013-05-27 17:54:00,
2013-05-27 14:09:00,75.4,56.0,30.26,WSW,246,1.0,-999.0,51,-99.99,,,0.00,weatherlink.com 1.10,2013-05-27 18:09:00,
2013-05-27 14:24:00,76.1,56.0,30.25,WNW,302,5.0,-999.0,50,-99.99,,,0.00,weatherlink.com 1.10,2013-05-27 18:24:00,
2013-05-27 14:39:00,76.2,56.0,30.25,South,188,4.0,-999.0,50,-99.99,,,0.00,weatherlink.com 1.10,2013-05-27 18:39:00,
2013-05-27 14:54:00,77.0,58.0,30.24,SSE,153,0.0,-999.0,52,-99.99,,,0.00,weatherlink.com 1.10,2013-05-27 18:54:00,
2013-05-27 15:09:00,76.6,56.0,30.23,SW,221,2.0,-999.0,49,-99.99,,,0.00,weatherlink.com 1.10,2013-05-27 19:09:00,
2013-05-27 15:24:00,76.4,56.0,30.23,SSW,193,4.0,-999.0,50,-99.99,,,0.00,weatherlink.com 1.10,2013-05-27 19:24:00,
2013-05-27 15:39:00,77.0,56.0,30.22,West,262,5.0,-999.0,49,-99.99,,,0.00,weatherlink.com 1.10,2013-05-27 19:39:00,
2013-05-27 15:54:00,76.9,57.0,30.22,SSE,153,2.0,-999.0,50,-99.99,,,0.00,weatherlink.com 1.10,2013-05-27 19:54:00,
2013-05-27 16:09:00,77.3,58.0,30.21,South,188,3.0,-999.0,51,-99.99,,,0.00,weatherlink.com 1.10,2013-05-27 20:09:00,
2013-05-27 16:24:00,76.7,57.0,30.20,SSE,167,5.0,-999.0,50,-99.99,,,0.00,weatherlink.com 1.10,2013-05-27 20:24:00,
2013-05-27 16:39:00,76.7,58.0,30.20,SE,139,5.0,-999.0,53,-99.99,,,0.00,weatherlink.com 1.10,2013-05-27 20:39:00,
2013-05-27 16:54:00,76.0,58.0,30.21,South,169,5.0,-999.0,53,-99.99,,,0.00,weatherlink.com 1.10,2013-05-27 20:54:00,
2013-05-27 17:09:00,76.7,58.0,30.20,South,179,2.0,-999.0,53,-99.99,,,0.00,weatherlink.com 1.10,2013-05-27 21:09:00,
2013-05-27 17:24:00,76.5,59.0,30.20,SSE,158,4.0,-999.0,54,-99.99,,,0.00,weatherlink.com 1.10,2013-05-27 21:24:00,
2013-05-27 17:39:00,76.0,59.0,30.21,SE,130,2.0,-999.0,56,-99.99,,,0.00,weatherlink.com 1.10,2013-05-27 21:39:00,
2013-05-27 17:54:00,76.1,58.0,30.20,South,190,6.0,-999.0,54,-99.99,,,0.00,weatherlink.com 1.10,2013-05-27 21:54:00,
2013-05-27 18:09:00,76.0,58.0,30.20,SSE,167,6.0,-999.0,54,-99.99,,,0.00,weatherlink.com 1.10,2013-05-27 22:09:00,
2013-05-27 18:24:00,75.7,58.0,30.20,NW,321,5.0,-999.0,55,-99.99,,,0.00,weatherlink.com 1.10,2013-05-27 22:24:00,
2013-05-27 18:39:00,75.7,58.0,30.19,South,174,2.0,-999.0,54,-99.99,,,0.00,weatherlink.com 1.10,2013-05-27 22:39:00,
2013-05-27 18:54:00,74.4,56.0,30.20,SSW,193,3.0,-999.0,53,-99.99,,,0.00,weatherlink.com 1.10,2013-05-27 22:54:00,
2013-05-27 19:09:00,73.6,56.0,30.20,SW,225,4.0,-999.0,55,-99.99,,,0.00,weatherlink.com 1.10,2013-05-27 23:09:00,
2013-05-27 19:24:00,72.8,57.0,30.20,SSW,205,2.0,-999.0,57,-99.99,,,0.00,weatherlink.com 1.10,2013-05-27 23:24:00,
2013-05-27 19:39:00,73.0,57.0,30.20,SSE,158,3.0,-999.0,57,-99.99,,,0.00,weatherlink.com 1.10,2013-05-27 23:39:00,
2013-05-27 19:54:00,72.5,57.0,30.20,SSW,195,1.0,-999.0,59,-99.99,,,0.00,weatherlink.com 1.10,2013-05-27 23:54:00,
2013-05-27 20:09:00,71.6,57.0,30.19,WSW,255,1.0,-999.0,60,-99.99,,,0.00,weatherlink.com 1.10,2013-05-28 00:09:00,
2013-05-27 20:24:00,71.1,57.0,30.19,SE,143,2.0,-999.0,62,-99.99,,,0.00,weatherlink.com 1.10,2013-05-28 00:24:00,
2013-05-27 20:39:00,70.6,57.0,30.18,South,183,3.0,-999.0,63,-99.99,,,0.00,weatherlink.com 1.10,2013-05-28 00:39:00,
2013-05-27 20:54:00,69.9,58.0,30.18,SSW,210,3.0,-999.0,65,-99.99,,,0.00,weatherlink.com 1.10,2013-05-28 00:54:00,
2013-05-27 21:09:00,69.9,58.0,30.18,SSE,160,1.0,-999.0,66,-99.99,,,0.00,weatherlink.com 1.10,2013-05-28 01:09:00,
2013-05-27 21:24:00,69.9,58.0,30.18,South,177,3.0,-999.0,65,-99.99,,,0.00,weatherlink.com 1.10,2013-05-28 01:24:00,
2013-05-27 21:39:00,69.8,58.0,30.19,SSE,153,1.0,-999.0,66,-99.99,,,0.00,weatherlink.com 1.10,2013-05-28 01:39:00,
2013-05-27 21:54:00,69.7,58.0,30.20,SSE,164,0.0,-999.0,66,-99.99,,,0.00,weatherlink.com 1.10,2013-05-28 01:54:00,
2013-05-27 22:09:00,69.6,58.0,30.20,SSE,160,2.0,-999.0,67,-99.99,,,0.00,weatherlink.com 1.10,2013-05-28 02:09:00,
2013-05-27 22:24:00,69.5,58.0,30.21,SSE,149,1.0,-999.0,67,-99.99,,,0.00,weatherlink.com 1.10,2013-05-28 02:24:00,
2013-05-27 22:39:00,69.4,58.0,30.21,SE,143,0.0,-999.0,67,-99.99,,,0.00,weatherlink.com 1.10,2013-05-28 02:39:00,
2013-05-27 22:54:00,69.3,58.0,30.21,SE,146,0.0,-999.0,68,-99.99,,,0.00,weatherlink.com 1.10,2013-05-28 02:54:00,
2013-05-27 23:09:00,69.0,58.0,30.22,SE,127,0.0,-999.0,68,-99.99,,,0.00,weatherlink.com 1.10,2013-05-28 03:09:00,
2013-05-27 23:24:00,69.0,58.0,30.22,SE,135,1.0,-999.0,68,-99.99,,,0.00,weatherlink.com 1.10,2013-05-28 03:24:00,
2013-05-27 23:39:00,69.2,58.0,30.22,SE,138,1.0,-999.0,68,-99.99,,,0.00,weatherlink.com 1.10,2013-05-28 03:39:00,
2013-05-27 23:54:00,69.3,58.0,30.22,SSE,148,1.0,-999.0,68,-99.99,,,0.00,weatherlink.com 1.10,2013-05-28 03:54:00,